Location: Solon
(41.3849°N, 81.4081°W)
Time: 10:28:00
(UTC-04:00)

Daily predictions for brighter satellites

Satellite Brightness Start Highest point End
(mag) Time Altitude Azimuth Time Altitude Azimuth Time Altitude Azimuth
Cosmos 1151 Rocket 3.2 21:31:21 10° N 21:35:38 59° E 21:39:54 10° SSE
Cosmos 1437 3.4 21:33:32 10° SSE 21:36:36 38° E 21:39:40 10° NNE
H-2A R/B 4.2 21:34:46 10° SSW 21:38:20 37° W 21:41:53 10° NNW
ATLAS 2AS CENTAUR R/B 4.4 21:35:07 10° SE 21:38:43 14° ESE 21:42:26 10° ENE
COSMOS 2428 3.3 21:38:41 10° NNW 21:44:05 43° ENE 21:49:29 10° SE
Cosmos 1437 Rocket 3.0 21:40:50 10° NNW 21:44:38 69° W 21:48:28 10° S
USA 186 3.9 21:43:17 10° SW 21:44:46 16° W 21:46:17 10° NW
ARGOS 4.5 21:41:22 10° ESE 21:45:43 25° ENE 21:50:03 10° N
ERS-1 Rocket 3.2 21:41:51 10° S 21:46:52 76° WSW 21:51:56 10° NNW
Cosmos 2219 Rocket 3.6 21:43:27 10° N 21:48:00 25° NE 21:52:32 10° ESE
Envisat 3.1 21:43:31 10° SSE 21:48:33 68° ENE 21:53:36 10° N
Cosmos 2266 Rocket 4.0 21:43:05 10° S 21:49:22 80° E 21:55:34 10° N
Cosmos 1939 Rocket 2.8 21:45:46 10° SSE 21:49:42 83° ENE 21:53:36 10° N
ERBS 4.4 21:49:50 10° SE 21:50:55 11° ESE 21:52:06 10° E
Cosmos 1805 Rocket 4.2 21:46:51 10° SSE 21:50:56 37° E 21:55:02 10° NNE
Terra 4.0 21:50:08 10° ENE 21:51:26 11° ENE 21:52:44 10° NE
Cosmos 2315 Rocket 4.1 21:52:39 10° N 21:58:49 62° E 22:04:56 10° SSE
Cosmos 1726 3.3 21:57:44 10° NNE 22:01:05 29° ENE 22:03:46 14° SE
NOSS 3-1 (C) 3.4 21:55:51 10° SSW 22:01:33 59° ESE 22:07:51 10° NE
SL-23 DEB 4.0 21:56:31 10° NW 22:02:02 86° SW 22:05:00 14° SE
Cosmos 2112 Rocket 4.0 21:57:59 10° NNW 22:03:15 90° ENE 22:08:33 10° SSE
OTV 4 2.4 22:02:38 10° S 22:04:07 14° SSE 22:04:07 14° SSE
OAO 2 Rocket 4.2 21:59:39 10° SW 22:04:16 31° SSE 22:08:55 10° ESE
CZ-4 SHROUD 3.3 22:02:06 12° SSE 22:04:53 62° ENE 22:07:59 10° N
Cosmos 2237 4.3 22:00:01 10° NNW 22:05:45 68° ENE 22:10:48 13° SSE
Cosmos 1937 Rocket 4.4 22:02:52 10° SSE 22:07:22 29° E 22:11:50 10° NE
H-2A R/B 2.7 22:03:27 10° S 22:07:56 60° WSW 22:12:25 10° NNW
Cosmos 1707 Rocket 3.8 22:05:24 10° N 22:09:40 51° E 22:13:15 14° SSE
Cosmos 1666 Rocket 3.9 22:09:25 10° SSE 22:13:37 47° E 22:17:53 10° NNE
Cosmos 2298 Rocket 4.1 22:08:32 10° S 22:13:43 57° ESE 22:18:56 10° NNE
Cosmos 1328 3.9 22:11:02 10° S 22:14:58 78° W 22:18:57 10° N
Tiangong 1 1.0 22:12:24 10° WSW 22:15:27 56° SSE 22:18:30 10° E
Cosmos 2219 3.3 22:09:51 10° SSW 22:15:37 88° WNW 22:21:24 10° NNE
CZ-4 R/B 4.5 22:14:00 10° NNE 22:18:33 37° E 22:22:06 15° SSE
Meteor 1-4 Rocket 3.5 22:15:43 10° N 22:19:09 33° ENE 22:21:09 19° SE
Cosmos 2237 Rocket 3.4 22:16:11 10° N 22:21:10 30° NE 22:25:15 14° ESE
Cosmos 2333 4.3 22:17:28 10° NNW 22:23:12 70° ENE 22:27:36 18° SE
DELTA 2 R/B (1) 4.4 22:20:14 10° W 22:25:14 35° SSW 22:28:40 18° SSE
Cosmos 1271 Rocket 3.4 22:22:52 10° N 22:26:29 38° ENE 22:28:33 22° SE
MetOp-B 4.2 22:23:58 12° SSE 22:28:54 84° WSW 22:34:17 10° NNW
CZ-4B R/B 3.5 22:25:26 10° NNE 22:30:42 70° ESE 22:35:51 10° S
Cosmos 2360 Rocket 3.4 22:26:35 10° NW 22:31:46 38° WSW 22:36:57 10° S
Cosmos 1745 Rocket 4.4 22:27:24 16° SSE 22:32:05 44° E 22:37:55 10° NNE
NOSS 0 Rocket 4.4 22:27:09 10° NNW 22:33:08 50° ENE 22:37:22 19° SE
Cosmos 1703 3.7 22:32:27 22° SSE 22:34:31 42° E 22:38:13 10° NNE
Iridium 2 4.5 22:33:22 24° SE 22:35:01 35° E 22:38:32 10° NNE
SL-14 R/B 3.2 22:31:35 12° S 22:35:10 83° E 22:39:12 10° N
NOAA 11 4.3 22:32:40 19° SSE 22:36:37 66° ENE 22:42:02 10° N
Meteor 1-27 4.3 22:32:57 10° NNW 22:38:40 82° W 22:43:18 15° S
H-2A R/B 2.9 22:36:57 20° SE 22:40:10 39° ENE 22:45:11 10° N
Cosmos 1626 3.3 22:41:26 23° ESE 22:42:12 25° E 22:45:20 10° NNE
SPOT 5 3.8 22:41:59 10° S 22:46:18 41° W 22:50:54 10° NNW
Delta 2 Rocket 3.8 22:45:21 10° WSW 22:48:27 28° S 22:48:40 28° S
Cosmos 1898 Rocket 3.6 22:46:38 10° SSW 22:51:49 77° WNW 22:57:03 10° NNE
YAOGAN 6 3.4 22:50:10 18° SSW 22:52:33 45° W 22:56:01 10° NNW
SPOT 1/Viking Rocket 3.7 22:48:49 19° S 22:52:34 72° WSW 22:57:44 10° NNW
Lacrosse 4 Rocket 3.5 22:52:51 10° N 22:56:07 20° NE 22:58:32 14° E
Cosmos 2227 Rocket 2.3 22:55:43 18° S 22:59:55 57° ESE 23:05:28 10° NNE
Cosmos 1300 4.1 22:57:36 10° NNW 23:01:07 34° W 23:03:49 15° SSW
NOSS 3-1 (A) 3.8 23:00:16 10° SW 23:06:08 66° NW 23:12:42 10° NNE
Cosmos 292 Rocket 3.9 23:01:33 10° NNW 23:06:17 68° WSW 23:08:40 29° S
Cosmos 2242 Rocket 3.9 23:02:22 10° NNW 23:06:49 64° W 23:09:21 25° S
Sich 1 3.9 23:03:04 11° SSW 23:07:14 49° W 23:11:31 10° N
Cosmos 1862 Rocket 3.6 23:04:19 10° N 23:08:37 59° E 23:10:03 38° SE
CARTOSAT-1 3.7 23:08:07 36° SE 23:09:41 62° ENE 23:13:58 10° N
COSMOS 2455 3.7 23:05:01 10° NNW 23:10:41 40° NE 23:14:03 22° ESE
Cosmos 1633 Rocket 4.0 23:08:22 11° SSW 23:12:21 45° WNW 23:16:34 10° N
Landsat 7 3.8 23:10:19 32° SSE 23:12:34 88° W 23:17:21 10° NNW
USA 245 4.4 23:15:04 18° WSW 23:15:25 18° W 23:17:10 10° NW
SL-16 R/B 3.2 23:10:14 10° N 23:15:27 36° ENE 23:18:12 23° ESE
SAR-Lupe-2 3.8 23:15:11 46° ESE 23:15:47 53° ENE 23:19:17 10° N
Cosmos 2333 Rocket 2.2 23:10:53 10° NNW 23:16:41 90° SE 23:19:24 33° SSE
Cosmos 1346 3.0 23:20:05 70° SW 23:20:19 77° W 23:23:22 10° N
FALCON 9 R/B 3.9 22:55:58 10° W 23:22:21 62° S 23:27:16 23° ESE
Cosmos 1455 2.1 23:19:49 10° N 23:23:39 89° WSW 23:24:28 54° S
BREEZE-M DEB (TANK) 2.9 23:22:41 10° NW 23:24:44 45° NNE 23:25:19 38° ENE
ARGOS 4.0 23:22:16 20° SSW 23:25:40 44° W 23:30:49 10° NNW
Cosmos 2297 Rocket 2.1 23:23:49 29° S 23:26:44 66° ESE 23:32:21 10° NNE
ERBS 2.7 23:23:49 10° SW 23:27:18 66° NW 23:30:46 10° NE
COSMOS 2428 4.2 23:23:24 10° NW 23:28:06 27° WSW 23:31:38 15° SSW
ATLAS 2AS CENTAUR R/B 2.9 23:20:53 10° SSW 23:28:18 75° ESE 23:36:21 10° NE
Terra 1.7 23:26:42 40° SSE 23:28:25 87° WSW 23:33:13 10° NNW
DMSP B5D2-2 4.0 23:26:25 10° NNE 23:31:40 84° ESE 23:34:06 33° S
Cosmos 2219 Rocket 2.7 23:26:50 10° NW 23:32:14 51° WSW 23:34:43 30° SSW
Spot 4 3.8 23:34:28 44° SSE 23:36:01 86° ENE 23:40:54 10° NNW
Cosmos 1869 Rocket 4.3 23:36:29 36° E 23:36:46 37° E 23:40:54 10° NNE
IGS 5A 3.5 23:36:25 50° S 23:37:24 75° WSW 23:41:36 10° NNW
Cosmos 468 4.5 23:36:29 10° NNW 23:41:52 83° ENE 23:43:31 46° SSE
ATLAS 3B R/B 2.8 23:35:07 10° NNW 23:42:08 67° NE 23:45:16 33° SE
Cosmos 1900 4.4 23:40:05 10° NNW 23:45:03 69° ENE 23:46:21 47° ESE
OAO 2 Rocket 3.9 23:43:36 10° WSW 23:48:05 41° SSW 23:48:05 41° SSW
COS B Rocket 3.8 23:45:49 10° NNE 23:49:37 47° E 23:49:37 47° E
Cosmos 1869 3.8 23:45:52 10° NNW 23:49:50 53° W 23:50:34 46° SW
Tiangong 1 2.3 23:48:58 10° W 23:51:01 36° WNW 23:51:01 36° WNW
Cosmos 1980 4.3 23:47:41 10° NW 23:53:05 48° WSW 23:55:01 34° SSW
ALOS 2 4.4 23:52:44 19° E 23:53:34 20° ENE 23:56:43 10° NNE
